Showing default

YAOGAN-36 02B, 54043

Orbit data source: Space-Track

YAOGAN-36 02B, 54043 is a payload satellite owned by PLA GAD (CN) in LEO that was launched on Fri, 14 Oct 2022 UTC via a CHANG ZHENG 2D launch vehicle from the Xichang Space Center, China (XSC). Payload-class satellites include a variety of spacecraft equipped with specific instruments for various scientific and technological missions. These include communications satellites like Starlink; space stations such as the ISS; scientific satellites like the Hubble; Earth observation satellites from companies like Planet Labs, Umbra, and HawkEye 360; GPS; miniature CubeSats for education and research; and military/defense satellites.

Loading next visibility...
Identifier
54043, 2022-133B
Orbit
LEO
Country
Flag of CNCN / PRC
Related business
Manufacturer
DFH
Mission
Operational Defense Sigint
Bus & Motor
Unknown
Mass
~300 kg wet, ~300 kg dry
Launch date (UTC)
2022-10-14 (4 years ago)
Launch vehicle
CHANG ZHENG 2D
Launch site
Xichang Space Center, China (XSC)
Object type
Payload
Rocket body
Debris
Shape & HBR
Box + 2 Pan, 2.5 m
Radar Cross Section
11.063 m², Large (>1 m²)

Expand to show TLE details & history
Last TLE update: 23 hours ago

TLE from 23 hours ago
0 YAOGAN-36 02B
1 54043U 22133B   26172.46441321  .00010276  00000-0  31905-3 0  9997
2 54043  34.9963  82.9838 0002319 148.8132 211.2724 15.32577502205500
Epoch: 2026-06-21T11:08Z
TLE epoch observation values (Epoch: 2026-06-21T11:08:45.301Z)
Latitude
0.00002°
Longitude
6.13077°
Altitude
468.384 km
Speed
7.634 km/s
True Right ascension
05h 31m 56s
True Declination
0° 00' 00"
Sunlit
Object was in daylight at epoch
Visualization orbit readout
Latitude
Unknown
Longitude
Unknown
Altitude
Unknown
Speed
Unknown
Apparent Right ascension
Unknown
Apparent Declination
Unknown
Sunlit
N/A
Visualization observer readout
Local Sidereal Time
21:28:45
Azimuth
Unknown
Elevation
Unknown
Doppler factor
Unknown
Orbital elements
Apogee altitude
472.978 km
Perigee altitude
469.801 km
Semi-major axis
6,849.527 km
Eccentricity
0.00023
Inclination
34.9963°
RAAN
82.9838°
Arg. of periapsis
148.8132°
True anomaly
211.25861°
Mean anomaly
211.2724°
Eccentric anomaly
211.2655°
Mean motion
3.82871 °/min
Orbital period
94.03 mins
BSTAR
0.00031905
Loading maneuver chart data...
Computing Atmospheric mass density...
Loading historical data...
Loading historical data...
Loading historical data...
Loading historical data...
Loading historical data...
Loading historical data...
Loading historical data...
Other satellites on launch #133 in the year 2022 (2022-10-14 UTC)

Documentation

Showing up to 5 results
|